Wichita, KS

3:32 PM CST on January 23, 2017 (GMT -0600)
Wichita Eisenhower National Airport

Weather History for KICT - November, 2013

Change the Weather History Date:

Wednesday, November 20, 2013

  Actual Average Record
Temperature  
Mean Temperature 56 °F 43 °F  
Max Temperature 61 °F 54 °F 83 °F (1897)
Min Temperature 50 °F 33 °F 13 °F (1937)
Degree Days  
Heating Degree Days 9 22  
Month to date heating degree days 311 343  
Since 1 July heating degree days 565 629  
Cooling Degree Days 0 0  
Month to date cooling degree days 0 0  
Year to date cooling degree days 1778 1684  
Growing Degree Days 6 (Base 50)    
Moisture  
Dew Point 41 °F    
Average Humidity 55    
Maximum Humidity 72    
Minimum Humidity 38    
Precipitation  
Precipitation 0.00 in 0.04 in 1.24 in (1979)
Month to date precipitation 0.30 1.01  
Year to date precipitation 39.55 31.02  
Snow  
Snow 0.00 in 0.10 in 1.20 in (1906)
Month to date snowfall 0.0 0.5  
Since 1 July snowfall T 0.6  
Since 1 September snowfall T 0.6  
Snow Depth 0.00 in    
Sea Level Pressure  
Sea Level Pressure 29.83 in    
Wind  
Wind Speed 15 mph (South)    
Max Wind Speed 28 mph    
Max Gust Speed 36 mph    
Visibility 10 miles    
Events      
T = Trace of Precipitation, MM = Missing Value Source: NWS Daily Summary

Daily Weather History Graph

Daily Weather History Graph

Search for Another Location

Airport or City:

Trip Planner

Search our weather history database for the weather conditions in past years. The results will help you decide how hot, cold, wet, or windy it might be!

Date:

Astronomy

Nov. 20, 2013 Rise Set
Actual Time 7:15 AM CST 5:15 PM CST
Civil Twilight 6:46 AM CST 5:43 PM CST
Nautical Twilight 6:15 AM CST 6:15 PM CST
Astronomical Twilight 5:43 AM CST 6:46 PM CST
Moon 7:59 PM CST (11/20) 9:41 AM CST (11/20)
Length of Visible Light 10h 56m
Length of Day
10h 00m
Waning Gibbous, 91% of the Moon is Illuminated
Nov 20
Waning Gibbous
Nov 25
Last Quarter
Dec 2
New
Dec 9
First Quarter
Dec 17
Full

Hourly Weather History & Observations

Time (CST) Temp. Dew Point Humidity Pressure Visibility Wind Dir Wind Speed Gust Speed Precip Events Conditions
12:53 AM 50.0 °F 28.0 °F 43% 29.87 in 10.0 mi SSE 19.6 mph - N/A   Mostly Cloudy
1:53 AM 50.0 °F 28.9 °F 44% 29.86 in 10.0 mi SSE 17.3 mph - N/A   Mostly Cloudy
2:53 AM 51.1 °F 28.9 °F 43% 29.83 in 10.0 mi SSE 23.0 mph 31.1 mph N/A   Mostly Cloudy
3:53 AM 52.0 °F 28.9 °F 41% 29.82 in 10.0 mi South 24.2 mph 35.7 mph N/A   Overcast
4:53 AM 52.0 °F 28.9 °F 41% 29.81 in 10.0 mi South 23.0 mph 29.9 mph N/A   Overcast
5:53 AM 52.0 °F 30.0 °F 43% 29.81 in 10.0 mi South 20.7 mph 26.5 mph N/A   Overcast
6:53 AM 51.1 °F 30.9 °F 46% 29.81 in 10.0 mi South 18.4 mph - N/A   Overcast
7:53 AM 52.0 °F 32.0 °F 47% 29.83 in 10.0 mi South 15.0 mph 23.0 mph N/A   Mostly Cloudy
8:53 AM 53.1 °F 34.0 °F 48% 29.83 in 10.0 mi South 16.1 mph - N/A   Mostly Cloudy
9:53 AM 55.0 °F 37.9 °F 53% 29.84 in 10.0 mi South 17.3 mph 26.5 mph N/A   Mostly Cloudy
10:53 AM 57.0 °F 42.1 °F 57% 29.84 in 10.0 mi South 20.7 mph 28.8 mph N/A   Mostly Cloudy
11:00 AM 57.2 °F 42.8 °F 59% 29.84 in 10.0 mi South 18.4 mph 26.5 mph N/A   Mostly Cloudy
11:53 AM 59.0 °F 44.1 °F 58% 29.82 in 10.0 mi South 15.0 mph 23.0 mph N/A   Mostly Cloudy
12:53 PM 57.9 °F 44.1 °F 60% 29.81 in 10.0 mi South 15.0 mph - N/A   Mostly Cloudy
1:11 PM 59.0 °F 46.4 °F 63% 29.80 in 10.0 mi South 16.1 mph - N/A   Mostly Cloudy
1:53 PM 60.1 °F 48.0 °F 64% 29.78 in 10.0 mi South 16.1 mph - N/A   Overcast
2:35 PM 59.0 °F 48.2 °F 67% 29.79 in 10.0 mi South 17.3 mph - N/A   Overcast
2:53 PM 60.1 °F 48.0 °F 64% 29.78 in 10.0 mi South 17.3 mph - N/A   Overcast
3:12 PM 60.8 °F 48.2 °F 63% 29.79 in 10.0 mi South 17.3 mph - N/A   Overcast
3:53 PM 59.0 °F 48.0 °F 67% 29.79 in 10.0 mi South 12.7 mph - N/A   Overcast
4:53 PM 57.0 °F 48.0 °F 72% 29.81 in 10.0 mi SSE 8.1 mph - N/A   Overcast
5:31 PM 55.4 °F 46.4 °F 72% 29.83 in 10.0 mi SE 4.6 mph - N/A   Overcast
5:53 PM 55.9 °F 46.9 °F 72% 29.83 in 10.0 mi SE 6.9 mph - N/A   Overcast
6:53 PM 57.0 °F 46.9 °F 69% 29.85 in 10.0 mi SSE 6.9 mph - N/A   Overcast
7:37 PM 55.4 °F 46.4 °F 72% 29.86 in 10.0 mi SSE 10.4 mph - N/A   Overcast
7:53 PM 55.9 °F 45.0 °F 67% 29.86 in 10.0 mi SSE 11.5 mph - N/A   Mostly Cloudy
8:53 PM 54.0 °F 44.1 °F 69% 29.86 in 10.0 mi SSE 6.9 mph - N/A   Overcast
9:53 PM 53.1 °F 45.0 °F 74% 29.89 in 10.0 mi SSE 8.1 mph - N/A   Overcast
10:53 PM 54.0 °F 45.0 °F 72% 29.90 in 10.0 mi South 9.2 mph - N/A   Overcast
11:53 PM 54.0 °F 45.0 °F 72% 29.90 in 10.0 mi South 8.1 mph - N/A   Overcast